TimeCDT,TemperatureF,Dew PointF,Humidity,Sea Level PressureIn,VisibilityMPH,Wind Direction,Wind SpeedMPH,Gust SpeedMPH,PrecipitationIn,Events,Conditions,WindDirDegrees,DateUTC
12:53 AM,37.9,21.9,53,30.14,10.0,North,11.5,-,N/A,,Clear,360,2013-05-04 05:53:00
1:53 AM,37.0,21.9,54,30.14,10.0,North,11.5,-,N/A,,Clear,360,2013-05-04 06:53:00
2:53 AM,33.1,24.1,70,30.14,10.0,NW,10.4,-,N/A,,Clear,320,2013-05-04 07:53:00
3:53 AM,34.0,24.1,67,30.13,10.0,NNW,9.2,-,N/A,,Clear,330,2013-05-04 08:53:00
4:53 AM,34.0,24.1,67,30.13,10.0,NNW,13.8,-,N/A,,Clear,340,2013-05-04 09:53:00
5:53 AM,36.0,26.1,67,30.13,10.0,NNW,15.0,-,N/A,,Overcast,340,2013-05-04 10:53:00
6:53 AM,37.0,26.1,65,30.14,10.0,North,15.0,-,N/A,,Overcast,350,2013-05-04 11:53:00
7:53 AM,37.9,24.1,57,30.15,10.0,North,16.1,-,N/A,,Overcast,350,2013-05-04 12:53:00
8:53 AM,37.9,25.0,60,30.16,10.0,North,16.1,-,N/A,,Overcast,350,2013-05-04 13:53:00
9:53 AM,39.0,26.1,60,30.16,10.0,North,18.4,26.5,N/A,,Overcast,350,2013-05-04 14:53:00
10:53 AM,41.0,25.0,53,30.17,10.0,North,21.9,27.6,N/A,,Overcast,350,2013-05-04 15:53:00
11:53 AM,46.0,27.0,47,30.17,10.0,North,23.0,33.4,N/A,,Overcast,350,2013-05-04 16:53:00
12:53 PM,48.0,28.0,46,30.16,10.0,North,21.9,28.8,N/A,,Overcast,10,2013-05-04 17:53:00
1:53 PM,50.0,26.1,39,30.16,10.0,North,25.3,31.1,N/A,,Overcast,350,2013-05-04 18:53:00
2:53 PM,50.0,28.0,43,30.17,10.0,North,19.6,28.8,N/A,,Overcast,350,2013-05-04 19:53:00
3:53 PM,48.9,28.0,44,30.17,10.0,North,21.9,31.1,N/A,,Overcast,350,2013-05-04 20:53:00
4:53 PM,48.9,30.9,50,30.16,10.0,North,23.0,29.9,N/A,,Overcast,360,2013-05-04 21:53:00
5:53 PM,48.0,30.9,52,30.17,10.0,North,17.3,25.3,N/A,,Overcast,360,2013-05-04 22:53:00
6:53 PM,46.9,30.9,54,30.19,10.0,North,18.4,-,N/A,,Overcast,360,2013-05-04 23:53:00
7:53 PM,45.0,32.0,60,30.19,10.0,North,13.8,-,0.00,Rain,Light Rain,360,2013-05-05 00:53:00
8:53 PM,44.1,33.1,65,30.21,10.0,North,12.7,-,0.00,,Overcast,10,2013-05-05 01:53:00
9:53 PM,43.0,34.0,71,30.23,10.0,North,11.5,-,N/A,,Overcast,10,2013-05-05 02:53:00
10:53 PM,43.0,35.1,74,30.24,10.0,North,11.5,-,N/A,,Overcast,360,2013-05-05 03:53:00
11:53 PM,43.0,35.1,74,30.23,10.0,North,10.4,-,N/A,,Overcast,10,2013-05-05 04:53:00